Home   Weather   Sacramento   Past weeks

Flag for USA Past Weather in Sacramento, California, USA — Yesterday and Last 2 Weeks

Now
46 °F

Clear.


Feels Like: 46 °F
Forecast: 34 / 51 °F
Wind: No wind

Location: Sacramento Executive Airport

Current Time: Dec 5, 2016 at 10:03:11 pm

Latest Report: Dec 5, 2016 at 8:53 pm


Visibility: 10 mi

Pressure: 30.03 "Hg

Humidity: 86%

Dew Point: 42 °F

Location of SacramentoLocation

Past Weather in Sacramento — Graph

°F

Sacramento Temperature Yesterday

Maximum temperature yesterday: 57 °F (at 1:53 pm)
Minimum temperature yesterday: 35 °F (at 6:53 am)
Average temperature yesterday: 46 °F

High & Low Weather Summary for the Past Weeks

 TemperatureHumidityPressure
High60 °F (Nov 21, 1:53 pm)100% (Nov 20, 8:53 pm)30.37 "Hg (Nov 20, 8:53 pm)
Low35 °F (Dec 4, 6:53 am)38% (Dec 2, 1:53 pm)29.82 "Hg (Nov 26, 5:53 am)
Average48 °F85%30.11 "Hg
* Reported Nov 20 8:53 pm — Dec 5 8:53 pm, Sacramento, Weather by CustomWeather, © 2016

Note: Actual official high and low records may vary slightly from our data, if they occured in-between our weather recording intervals... More about our weather records

Advertising

Sacramento Weather History for the Previous 24 Hours

Scroll right to see more
 ConditionsComfort  
Time TempWeatherWind HumidityBarometerVisibility
8:53 pm
Mon, Dec 5
46 °FClear.No wind86%30.03 "Hg10 mi
7:53 pm47 °FClear.No wind83%30.03 "Hg10 mi
6:53 pm47 °FClear.No wind83%30.03 "Hg10 mi
5:53 pm47 °FClear.3 mph83%30.03 "Hg10 mi
4:53 pm49 °FClear.No wind80%30.04 "Hg10 mi
3:53 pm52 °FSunny.No wind72%30.04 "Hg10 mi
2:53 pm52 °FSunny.7 mph75%30.06 "Hg10 mi
1:53 pm53 °FSunny.9 mph72%30.06 "Hg9 mi
12:53 pm52 °FSunny.10 mph75%30.07 "Hg10 mi
11:53 am51 °FFog.8 mph86%30.09 "Hg6 mi
10:53 am47 °FFog.8 mph90%30.10 "Hg6 mi
9:55 am42 °FFog.3 mph100%30.12 "Hg3 mi
9:03 am40 °FFog.6 mph100%30.13 "Hg1 mi
7:53 am38 °FFog.6 mph100%30.12 "Hg2 mi
6:53 am37 °FFog.No wind100%30.10 "Hg0 mi
5:53 am37 °FFog.No wind100%30.09 "Hg0 mi
5:03 am39 °FFog.3 mph96%30.08 "Hg0 mi
4:53 am39 °FFog.3 mph96%30.08 "Hg1 mi
4:00 am38 °FFog.No wind100%30.09 "Hg3 mi
3:00 am38 °FFog.No wind100%30.09 "Hg3 mi
1:53 am39 °FFog.No wind96%30.09 "Hg1 mi
12:53 am40 °FFog.No wind97%30.09 "Hg3 mi
11:53 pm
Sun, Dec 4
41 °FFog.No wind93%30.10 "Hg2 mi
10:53 pm44 °FFog.No wind93%30.11 "Hg5 mi
Weather by CustomWeather, © 2016

See weather overviewHow to use our weather pages